Volver al catálogo

STARLINK-30307

ActivoComunicacionesVLEO
NORAD 57747·PAYLOAD·🇺🇸 United States

Lanzado Sep 1, 2023 desde Cape Canaveral Space Force Station

Loading…

Próximos Pases (próximas 24 horas)

TLE

ActualizadoSource: CelesTrak SupGP

Época: Sep 15, 2026, 02:06 UTC

1 57747C 23131R   26258.08798611 -.00021115  00000+0 -76490-3 0  2581
2 57747  43.0031 183.0064 0001223 269.3598 336.2262 15.27584770    16

Sigue STARLINK-30307 en tiempo real con AllMySat

Download on the App Store